Regional Weather Roundup
Issued by NWS

Home | Current Version | Previous Version | Text Only | Print | Product List | Glossary Off
Versions: 1 2 3 4 5 6 7 8 9 10 11 12 13 14 15 16 17 18 19 20 21 22 23 24 25 26 27 28 29 30 31 32 33 34 35 36 37 38 39 40 41 42 43 44 45 46 47 48 49 50

000
ASUS45 KTFX 261610
RWRMT
MONTANA REGIONAL WEATHER ROUNDUP
NATIONAL WEATHER SERVICE GREAT FALLS MT
1000 AM MDT TUE MAY 26 2015

NOTE: "FAIR" INDICATES FEW OR NO CLOUDS BELOW 12000 FEET WITH NO
SIGNIFICANT WEATHER AND/OR OBSTRUCTIONS TO VISIBILITY.

MTZ001>007-043-261700-
WEST OF THE DIVIDE

CITY           SKY/WX    TMP DP  RH WIND       PRES   REMARKS
KALISPELL      SUNNY     59  49  69 VRB3      29.98S
MISSOULA       PTSUNNY   52  45  77 W3        30.02R
BUTTE          PTSUNNY   52  42  69 VRB3      30.03S
MULLAN PASS    CLOUDY    42  41  96 VRB3      30.02S
DEER LODGE       N/A     57  46  67 CALM      30.04F
EUREKA           N/A     55  48  76 W5        30.02S
HAMILTON         N/A     54  46  76 N9        29.99F
LIBBY            N/A     57  48  72 CALM      29.99F
RONAN            N/A     56  50  80 S3        30.04S
$$

MTZ008-052>055-261700-
SOUTHWEST MONTANA

CITY           SKY/WX    TMP DP  RH WIND       PRES   REMARKS
BOZEMAN        CLOUDY    55  47  74 CALM      30.01S
DILLON         SUNNY     54  43  66 CALM      30.01F
W YELLOWSTONE  CLOUDY    45  43  93 SW10      30.07R
THREE FORKS      N/A     57  31  37 CALM      30.00S
TWIN BRIDGES     N/A     55  43  64 SW2       30.01S
$$

MTZ009-010-012-014-046-048-049-054-261700-
EAST SLOPES AND CENTRAL MONTANA

CITY           SKY/WX    TMP DP  RH WIND       PRES   REMARKS
CUT BANK       LGT RAIN  51  50  96 N8        29.98R
GREAT FALLS    LGT RAIN  53  50  89 S3        29.96S
MALMSTROM AFB  LGT RAIN  53  51  94 W7        29.97
HELENA         MOSUNNY   60  47  61 N3        29.97S
CONRAD           N/A     55  54  97 S3        30.00R
$$

MTZ011-013-016-021-045-047-050-051-261700-
NORTH CENTRAL MONTANA

CITY           SKY/WX    TMP DP  RH WIND       PRES   REMARKS
HAVRE          CLOUDY    66  50  56 W6        29.92R
LEWISTOWN      MOSUNNY   62  49  62 MISG      29.95S
N BAR RANCH    FAIR      63  46  55 VRB7      29.98S
CHINOOK          N/A     66  48  52 W5        29.91F
FORT BENTON      N/A     55  54  94 SW6       29.97S
$$

MTZ017>020-022>027-061-062-261700-
NORTHEAST MONTANA

CITY           SKY/WX    TMP DP  RH WIND       PRES   REMARKS
GLASGOW        SUNNY     66  50  56 SE6       29.91F
JORDAN           N/A     67  50  54 SE6       29.91F
SIDNEY         SUNNY     64  54  68 SE3       29.94F
WOLF POINT     SUNNY     69  54  58 VRB3      29.92F
MALTA            N/A     67  52  58 CALM      29.89S
POPLAR           N/A     66  54  63 S3        29.93F
$$

MTZ028>42-056>058-261700-
SOUTHCENTRAL AND SOUTHEAST MONTANA

CITY           SKY/WX    TMP DP  RH WIND       PRES   REMARKS
BAKER          PTSUNNY   63  52  67 SE10      29.97S
BILLINGS       MOSUNNY   62  48  60 SW6       29.95R
LIVINGSTON     CLOUDY    56  47  71 NW5       29.98F
MILES CITY     SUNNY     65  51  60 SE9       29.93F
BIG TIMBER       N/A     57  46  67 SW10      29.98S
FORSYTH          N/A     64  54  68 SE5       29.92F
LAUREL           N/A     62  47  58 SW5       29.94S
ROUNDUP          N/A     65  47  52 CALM      29.86S
$$

REGIONAL REPORTS...DAKOTAS

CITY           SKY/WX    TMP DP  RH WIND       PRES   REMARKS
WILLISTON      SUNNY     69  51  52 VRB6      29.93F
MINOT          SUNNY     76  47  35 W14       29.88S
BEACH          FAIR      66  50  55 S14       29.96F
CROSBY         FAIR      72  48  43 W9G16     29.92S
WATFORD CITY   FAIR      68  50  52 SW7       29.92F
BISMARCK       SUNNY     72  49  44 NW13      29.91F
GRAND FORKS    MOSUNNY   72  53  51 W5        29.79S
FARGO          MOSUNNY   68  51  54 S9        29.83F
BUFFALO SD       N/A     61  51  70 S8        29.91F
RAPID CITY     MOSUNNY   59  52  77 SW9       29.99S
$$

REGIONAL REPORTS...WYOMING/IDAHO/WASHINGTON

CITY           SKY/WX    TMP DP  RH WIND       PRES   REMARKS
GILLETTE       SUNNY     61  47  59 SE6       29.97S
SHERIDAN       SUNNY     61  47  59 CALM      29.95F
BUFFALO WY     SUNNY     58  48  69 VRB5      29.99R
CODY           CLOUDY    57  41  54 W6        29.98S
YELLOWSTONE LA   N/A     42  39  89 CALM      30.12S
IDAHO FALLS    PTSUNNY   59  48  67 SW10      30.02S
SALMON         CLOUDY    54  46  76 N3        30.01F
BOISE          SUNNY     63  49  60 CALM      29.96S
SPOKANE        PTSUNNY   57  50  77 E6        29.98R
$$

REGIONAL REPORTS...ALBERTA

CITY           SKY/WX    TMP DP  RH WIND       PRES   REMARKS
EDMONTON       MOSUNNY   68  46  45 N6        29.96S
CALGARY        PTSUNNY   63  41  45 N12       29.98R
LETHBRIDGE     CLOUDY    59  48  67 W20G25    29.94S
MEDICINE HAT   CLOUDY    61  48  63 SW7       29.91S
$$

REGIONAL REPORTS...SASKATCHEWAN

CITY           SKY/WX    TMP DP  RH WIND       PRES   REMARKS
SWIFT CURRENT  SUNNY     72  39  30 VRB2      29.90S
REGINA         MOSUNNY   75  48  38 NW10      29.87F
$$


USA.gov is the U.S. government's official web portal to all federal, state and local government web resources and services.